Find Starlink 3509

NORAD ID: 51737 Int'l Des: 2022-016 Owner: SPXS Country: US Constellation: starlink operational
LEOCIRCULAR

实时位置

正在加载3D地球...

关于 Starlink 3509

正在加载描述...

即将过境

Passes for default location (London). Set your location on the main map for personalized predictions.

高度历史

Loading altitude history...

两行轨道根数

1 51737U 22016Z 26123.56882776 .00000463 00000-0 47195-4 0 9990
2 51737 53.2175 72.7591 0001357 84.8624 275.2523 15.08838581231848
Epoch: May 3, 2026 • Age: 12 hours

当前状态

高度 550.7 km
速度 7.59 km/s
星下点 -32.87°S, 30.82°E
发射日期 Feb 21, 2022
运行时间 4.1 years
类型 internet

技术详情

分类 Payload
质量 297.00 kg
干质量 275.00 kg
总质量 297.00 kg
长度 0.20 m
直径 2.80 m
跨度 9.00 m
形状 Box + pan
制造商 SPXS
平台类型 Starlink
阶段状态 In Orbit
所有者/国家 SPXS/US

Most Searched